| time (UTC) | temp F | wind direction | speed knots | gust knots | rain 1hr in | rain 24hr in | rain mn in | humidity % | barometer mb |
| 20260504032539 | 66 | 311 | 4.3 | 7.8 | 0.00 | 0.00 | 0.00 | 35 | 1001.3 |
| 20260504032039 | 65 | 315 | 2.6 | 7.8 | 0.00 | 0.00 | 0.00 | 35 | 1001.2 |
| 20260504031539 | 66 | 298 | 2.6 | 8.7 | 0.00 | 0.00 | 0.00 | 35 | 1001.2 |
| 20260504031038 | 66 | 302 | 2.6 | 8.7 | 0.00 | 0.00 | 0.00 | 35 | 1001.0 |
| 20260504030540 | 65 | 281 | 3.5 | 7.0 | 0.00 | 0.00 | 0.00 | 35 | 1001.1 |
| 20260504025540 | 65 | 308 | 2.6 | 7.8 | 0.00 | 0.00 | 0.00 | 34 | 1001.1 |
| 20260504025040 | 66 | 306 | 1.7 | 7.8 | 0.00 | 0.00 | 0.00 | 33 | 1001.2 |
| 20260504024539 | 66 | 316 | 0.9 | 5.2 | 0.00 | 0.00 | 0.00 | 32 | 1001.0 |
| 20260504024039 | 67 | 310 | 1.7 | 7.8 | 0.00 | 0.00 | 0.00 | 31 | 1001.1 |
| 20260504023538 | 68 | 285 | 2.6 | 7.8 | 0.00 | 0.00 | 0.00 | 30 | 1001.0 |
| 20260504023039 | 68 | 299 | 3.5 | 8.7 | 0.00 | 0.00 | 0.00 | 29 | 1001.0 |
| 20260504022538 | 68 | 289 | 4.3 | 11.3 | 0.00 | 0.00 | 0.00 | 29 | 1000.9 |
| 20260504022039 | 68 | 333 | 4.3 | 11.3 | 0.00 | 0.00 | 0.00 | 28 | 1001.1 |
| 20260504021537 | 69 | 310 | 2.6 | 8.7 | 0.00 | 0.00 | 0.00 | 27 | 1000.9 |
| 20260504021038 | 70 | 348 | 3.5 | 14.8 | 0.00 | 0.00 | 0.00 | 26 | 1000.8 |
| 20260504020539 | 70 | 302 | 7.0 | 16.5 | 0.00 | 0.00 | 0.00 | 26 | 1000.6 |
| 20260504015535 | 70 | 286 | 5.2 | 11.3 | 0.00 | 0.00 | 0.00 | 25 | 1000.6 |
| 20260504015036 | 71 | 277 | 4.3 | 12.2 | 0.00 | 0.00 | 0.00 | 25 | 1000.6 |
| 20260504014541 | 71 | 249 | 5.2 | 12.2 | 0.00 | 0.00 | 0.00 | 24 | 1000.6 |
| 20260504014035 | 71 | 299 | 6.1 | 11.3 | 0.00 | 0.00 | 0.00 | 24 | 1000.8 |
| 20260504013533 | 71 | 279 | 6.1 | 13.9 | 0.00 | 0.00 | 0.00 | 24 | 1000.8 |
| 20260504013034 | 71 | 279 | 6.1 | 13.9 | 0.00 | 0.00 | 0.00 | 25 | 1000.8 |
| 20260504012532 | 71 | 284 | 4.3 | 10.4 | 0.00 | 0.00 | 0.00 | 27 | 1000.9 |
| 20260504012032 | 71 | 296 | 4.3 | 10.4 | 0.00 | 0.00 | 0.00 | 28 | 1001.0 |
| 20260504011531 | 72 | 273 | 3.5 | 11.3 | 0.00 | 0.00 | 0.00 | 28 | 1000.9 |
| 20260504011030 | 72 | 267 | 7.0 | 11.3 | 0.00 | 0.00 | 0.00 | 28 | 1001.1 |
| 20260504010530 | 72 | 268 | 4.3 | 11.3 | 0.00 | 0.00 | 0.00 | 28 | 1001.1 |
| 20260504010132 | 73 | 265 | 3.5 | 16.5 | 0.00 | 0.00 | 0.00 | 27 | 1001.1 |
| 20260504005529 | 73 | 270 | 5.2 | 16.5 | 0.00 | 0.00 | 0.00 | 27 | 1001.1 |
| 20260504005028 | 73 | 248 | 7.0 | 9.6 | 0.00 | 0.00 | 0.00 | 27 | 1001.2 |
| 20260504004528 | 74 | 256 | 6.1 | 13.9 | 0.00 | 0.00 | 0.00 | 27 | 1001.2 |
| 20260504004027 | 74 | 240 | 6.1 | 13.9 | 0.00 | 0.00 | 0.00 | 27 | 1001.3 |
| 20260504003527 | 73 | 262 | 6.1 | 15.6 | 0.00 | 0.00 | 0.00 | 26 | 1001.3 |
| 20260504003027 | 74 | 230 | 7.8 | 18.2 | 0.00 | 0.00 | 0.00 | 26 | 1001.3 |
| 20260504002527 | 74 | 278 | 9.6 | 18.2 | 0.00 | 0.00 | 0.00 | 26 | 1001.4 |
| 20260504002026 | 75 | 263 | 6.1 | 14.8 | 0.00 | 0.00 | 0.00 | 26 | 1001.5 |
| 20260504001526 | 75 | 296 | 6.1 | 14.8 | 0.00 | 0.00 | 0.00 | 25 | 1001.6 |
| 20260504001026 | 75 | 269 | 8.7 | 13.0 | 0.00 | 0.00 | 0.00 | 24 | 1001.7 |
| 20260504000524 | 75 | 281 | 6.1 | 12.2 | 0.00 | 0.00 | 0.00 | 24 | 1001.7 |
| 20260504000127 | 75 | 259 | 7.8 | 16.5 | 0.00 | 0.00 | 0.00 | 23 | 1001.8 |
| 20260503235525 | 75 | 256 | 8.7 | 16.5 | 0.00 | 0.00 | 0.00 | 23 | 1001.7 |
| 20260503235025 | 75 | 311 | 7.0 | 16.5 | 0.00 | 0.00 | 0.00 | 22 | 1001.9 |
| 20260503234538 | 76 | 234 | 6.1 | 12.2 | 0.00 | 0.00 | 0.00 | 23 | 1001.9 |
| 20260503234024 | 75 | 286 | 6.1 | 14.8 | 0.00 | 0.00 | 0.00 | 24 | 1002.1 |
| 20260503233523 | 75 | 242 | 7.8 | 15.6 | 0.00 | 0.00 | 0.00 | 23 | 1002.0 |
| 20260503233024 | 75 | 279 | 9.6 | 15.6 | 0.00 | 0.00 | 0.00 | 23 | 1002.2 |
| 20260503232523 | 76 | 292 | 7.8 | 14.8 | 0.00 | 0.00 | 0.00 | 23 | 1002.4 |
| 20260503232022 | 76 | 266 | 7.8 | 16.5 | 0.00 | 0.00 | 0.00 | 22 | 1002.5 |
| 20260503231522 | 76 | 319 | 7.8 | 16.5 | 0.00 | 0.00 | 0.00 | 21 | 1002.4 |
| 20260503231024 | 76 | 237 | 7.0 | 20.0 | 0.00 | 0.00 | 0.00 | 22 | 1002.8 |
| 20260503230522 | 76 | 262 | 8.7 | 20.0 | 0.00 | 0.00 | 0.00 | 20 | 1002.8 |
| 20260503230121 | 76 | 296 | 9.6 | 17.4 | 0.00 | 0.00 | 0.00 | 18 | 1002.9 |
| 20260503225521 | 76 | 275 | 7.8 | 15.6 | 0.00 | 0.00 | 0.00 | 18 | 1002.8 |
| 20260503225018 | 76 | 275 | 7.0 | 16.5 | 0.00 | 0.00 | 0.00 | 19 | 1003.2 |
| 20260503224518 | 76 | 287 | 7.8 | 16.5 | 0.00 | 0.00 | 0.00 | 19 | 1003.3 |
| 20260503224018 | 76 | 277 | 9.6 | 17.4 | 0.00 | 0.00 | 0.00 | 18 | 1003.2 |
| 20260503223521 | 76 | 300 | 7.8 | 14.8 | 0.00 | 0.00 | 0.00 | 18 | 1003.1 |
| 20260503223018 | 77 | 268 | 8.7 | 18.2 | 0.00 | 0.00 | 0.00 | 20 | 1003.3 |
| 20260503222516 | 77 | 290 | 7.8 | 18.2 | 0.00 | 0.00 | 0.00 | 18 | 1003.3 |
| 20260503222019 | 76 | 260 | 7.8 | 18.2 | 0.00 | 0.00 | 0.00 | 21 | 1003.4 |
| 20260503221516 | 75 | 258 | 8.7 | 18.2 | 0.00 | 0.00 | 0.00 | 22 | 1003.5 |
| 20260503221018 | 76 | 265 | 7.8 | 15.6 | 0.00 | 0.00 | 0.00 | 22 | 1003.4 |
| 20260503220517 | 77 | 317 | 7.0 | 13.0 | 0.00 | 0.00 | 0.00 | 19 | 1003.6 |
| 20260503220113 | 75 | 278 | 6.1 | 13.9 | 0.00 | 0.00 | 0.00 | 22 | 1003.5 |
| 20260503215517 | 75 | 299 | 5.2 | 14.8 | 0.00 | 0.00 | 0.00 | 22 | 1003.7 |
| 20260503215015 | 75 | 266 | 7.8 | 14.8 | 0.00 | 0.00 | 0.00 | 22 | 1003.9 |
| 20260503214513 | 75 | 288 | 5.2 | 17.4 | 0.00 | 0.00 | 0.00 | 23 | 1003.8 |
| 20260503214012 | 76 | 304 | 8.7 | 21.7 | 0.00 | 0.00 | 0.00 | 23 | 1003.8 |
| 20260503213514 | 76 | 246 | 8.7 | 21.7 | 0.00 | 0.00 | 0.00 | 24 | 1003.9 |
| 20260503213012 | 76 | 256 | 6.1 | 17.4 | 0.00 | 0.00 | 0.00 | 26 | 1004.1 |
| 20260503212510 | 76 | 286 | 10.4 | 16.5 | 0.00 | 0.00 | 0.00 | 25 | 1004.1 |
| 20260503212010 | 75 | 277 | 7.8 | 18.2 | 0.00 | 0.00 | 0.00 | 27 | 1004.2 |
| 20260503211508 | 75 | 225 | 8.7 | 18.2 | 0.00 | 0.00 | 0.00 | 25 | 1004.3 |
| 20260503211007 | 74 | 259 | 7.8 | 18.2 | 0.00 | 0.00 | 0.00 | 26 | 1004.4 |
| 20260503210508 | 75 | 278 | 8.7 | 18.2 | 0.00 | 0.00 | 0.00 | 25 | 1004.5 |
| 20260503210107 | 76 | 292 | 8.7 | 24.3 | 0.00 | 0.00 | 0.00 | 26 | 1004.6 |
| 20260503205508 | 76 | 250 | 8.7 | 24.3 | 0.00 | 0.00 | 0.00 | 27 | 1004.7 |
| 20260503205008 | 76 | 242 | 13.9 | 24.3 | 0.00 | 0.00 | 0.00 | 26 | 1004.7 |
| 20260503204507 | 76 | 233 | 7.0 | 20.0 | 0.00 | 0.00 | 0.00 | 27 | 1004.8 |
| 20260503204009 | 77 | 231 | 10.4 | 20.0 | 0.00 | 0.00 | 0.00 | 25 | 1005.1 |
| 20260503203504 | 76 | 234 | 8.7 | 16.5 | 0.00 | 0.00 | 0.00 | 27 | 1005.1 |
| 20260503203006 | 76 | 284 | 7.8 | 13.9 | 0.00 | 0.00 | 0.00 | 26 | 1005.4 |
| 20260503202503 | 75 | 286 | 6.1 | 14.8 | 0.00 | 0.00 | 0.00 | 29 | 1005.4 |
| 20260503202002 | 76 | 239 | 7.8 | 14.8 | 0.00 | 0.00 | 0.00 | 28 | 1005.5 |
| 20260503201501 | 76 | 259 | 7.0 | 22.6 | 0.00 | 0.00 | 0.00 | 28 | 1005.6 |
| 20260503201003 | 75 | 266 | 11.3 | 22.6 | 0.00 | 0.00 | 0.00 | 28 | 1005.7 |
| 20260503200501 | 75 | 236 | 10.4 | 20.0 | 0.00 | 0.00 | 0.00 | 28 | 1005.6 |
| 20260503200104 | 75 | 250 | 8.7 | 20.0 | 0.00 | 0.00 | 0.00 | 28 | 1005.8 |
| 20260503195057 | 75 | 250 | 11.3 | 16.5 | 0.00 | 0.00 | 0.00 | 28 | 1006.0 |
| 20260503194557 | 76 | 286 | 8.7 | 29.5 | 0.00 | 0.00 | 0.00 | 28 | 1006.2 |
| 20260503194058 | 75 | 256 | 9.6 | 29.5 | 0.00 | 0.00 | 0.00 | 28 | 1006.1 |
| 20260503193555 | 75 | 286 | 7.0 | 14.8 | 0.00 | 0.00 | 0.00 | 27 | 1006.4 |
| 20260503193106 | 75 | 250 | 7.0 | 21.7 | 0.00 | 0.00 | 0.00 | 28 | 1006.5 |
| 20260503192554 | 75 | 240 | 9.6 | 21.7 | 0.00 | 0.00 | 0.00 | 27 | 1006.7 |
| 20260503192052 | 75 | 268 | 7.8 | 16.5 | 0.00 | 0.00 | 0.00 | 28 | 1006.8 |
| 20260503191552 | 75 | 238 | 8.7 | 16.5 | 0.00 | 0.00 | 0.00 | 27 | 1006.9 |
| 20260503191054 | 75 | 238 | 7.8 | 18.2 | 0.00 | 0.00 | 0.00 | 28 | 1007.0 |
| 20260503190549 | 74 | 249 | 9.6 | 20.9 | 0.00 | 0.00 | 0.00 | 29 | 1007.1 |
| 20260503190051 | 74 | 273 | 9.6 | 19.1 | 0.00 | 0.00 | 0.00 | 29 | 1007.3 |
| 20260503185053 | 74 | 285 | 8.7 | 21.7 | 0.00 | 0.00 | 0.00 | 27 | 1007.6 |
| 20260503184604 | 74 | 275 | 11.3 | 21.7 | 0.00 | 0.00 | 0.00 | 29 | 1007.6 |
| 20260503184049 | 74 | 239 | 6.1 | 13.9 | 0.00 | 0.00 | 0.00 | 30 | 1007.8 |
| 20260503183550 | 73 | 271 | 6.1 | 17.4 | 0.00 | 0.00 | 0.00 | 30 | 1007.7 |
| 20260503183058 | 73 | 254 | 9.6 | 16.5 | 0.00 | 0.00 | 0.00 | 29 | 1007.8 |
| 20260503182551 | 74 | 227 | 6.1 | 15.6 | 0.00 | 0.00 | 0.00 | 29 | 1007.9 |
| 20260503182048 | 73 | 244 | 8.7 | 15.6 | 0.00 | 0.00 | 0.00 | 31 | 1008.0 |
| 20260503181549 | 73 | 238 | 6.1 | 12.2 | 0.00 | 0.00 | 0.00 | 32 | 1008.2 |
| 20260503181047 | 72 | 264 | 7.0 | 13.9 | 0.00 | 0.00 | 0.00 | 29 | 1008.2 |
| 20260503180544 | 73 | 304 | 6.1 | 13.9 | 0.00 | 0.00 | 0.00 | 30 | 1008.4 |
| 20260503180044 | 72 | 263 | 7.0 | 14.8 | 0.00 | 0.00 | 0.00 | 30 | 1008.5 |
| 20260503175043 | 72 | 269 | 8.7 | 14.8 | 0.00 | 0.00 | 0.00 | 30 | 1008.8 |
| 20260503174543 | 70 | 259 | 6.1 | 17.4 | 0.00 | 0.00 | 0.00 | 32 | 1008.9 |
| 20260503174042 | 70 | 254 | 8.7 | 20.9 | 0.00 | 0.00 | 0.00 | 32 | 1009.1 |
| 20260503173541 | 70 | 245 | 7.8 | 20.9 | 0.00 | 0.00 | 0.00 | 30 | 1009.1 |
| 20260503173042 | 71 | 243 | 10.4 | 15.6 | 0.00 | 0.00 | 0.00 | 31 | 1009.3 |
| 20260503172543 | 70 | 276 | 6.1 | 11.3 | 0.00 | 0.00 | 0.00 | 31 | 1009.4 |
| 20260503172038 | 70 | 299 | 6.1 | 11.3 | 0.00 | 0.00 | 0.00 | 32 | 1009.7 |
| 20260503171537 | 69 | 282 | 5.2 | 20.9 | 0.00 | 0.00 | 0.00 | 32 | 1009.8 |
| 20260503171036 | 70 | 249 | 10.4 | 20.9 | 0.00 | 0.00 | 0.00 | 32 | 1009.9 |
| 20260503170536 | 70 | 260 | 6.1 | 20.0 | 0.00 | 0.00 | 0.00 | 33 | 1009.9 |
| 20260503170136 | 69 | 248 | 15.6 | 21.7 | 0.00 | 0.00 | 0.00 | 33 | 1010.1 |
| 20260503151012 | 59 | 223 | 6.1 | 10.4 | 0.00 | 0.00 | 0.00 | 43 | 1011.9 |
| 20260503150511 | 58 | 194 | 7.0 | 10.4 | 0.00 | 0.00 | 0.00 | 43 | 1012.0 |
| 20260503131048 | 44 | 205 | 7.8 | 10.4 | 0.00 | 0.00 | 0.00 | 63 | 1012.7 |
| 20260503130548 | 43 | 208 | 7.0 | 10.4 | 0.00 | 0.00 | 0.00 | 64 | 1012.6 |
| 20260503110543 | 38 | 234 | 4.3 | 6.1 | 0.00 | 0.00 | 0.00 | 66 | 1013.1 |
| 20260503081522 | 40 | 276 | 0.0 | 0.9 | 0.00 | 0.00 | 0.00 | 59 | 1014.0 |
| 20260503081016 | 40 | 276 | 0.0 | 2.6 | 0.00 | 0.00 | 0.00 | 58 | 1013.9 |
| 20260503080515 | 41 | 276 | 0.9 | 3.5 | 0.00 | 0.00 | 0.00 | 57 | 1014.0 |
| 20260503072512 | 43 | 293 | 0.0 | 3.5 | 0.00 | 0.00 | 0.00 | 56 | 1014.2 |
| 20260503072010 | 43 | 299 | 1.7 | 2.6 | 0.00 | 0.00 | 0.00 | 55 | 1014.3 |
| 20260503071509 | 43 | 306 | 0.9 | 2.6 | 0.00 | 0.00 | 0.00 | 55 | 1014.3 |
| 20260503071009 | 43 | 306 | 1.7 | 2.6 | 0.00 | 0.00 | 0.00 | 55 | 1014.3 |
| 20260503070508 | 43 | 306 | 0.0 | 2.6 | 0.00 | 0.00 | 0.00 | 54 | 1014.3 |
| 20260503055001 | 46 | 11 | 0.0 | 0.0 | 0.00 | 0.00 | 0.00 | 49 | 1014.2 |
| 20260503054605 | 46 | 11 | 0.0 | 0.0 | 0.00 | 0.00 | 0.00 | 49 | 1014.2 |
| 20260503054104 | 46 | 11 | 0.0 | 0.0 | 0.00 | 0.00 | 0.00 | 50 | 1014.1 |
| 20260503053601 | 46 | 11 | 0.0 | 0.0 | 0.00 | 0.00 | 0.00 | 50 | 1014.2 |
| 20260503053100 | 46 | 11 | 0.0 | 0.0 | 0.00 | 0.00 | 0.00 | 50 | 1014.1 |
| 20260503052603 | 46 | 11 | 0.0 | 0.0 | 0.00 | 0.00 | 0.00 | 51 | 1014.1 |
| 20260503052059 | 46 | 11 | 0.0 | 0.0 | 0.00 | 0.00 | 0.00 | 50 | 1014.2 |
| 20260503051559 | 46 | 11 | 0.0 | 0.0 | 0.00 | 0.00 | 0.00 | 50 | 1014.2 |
| 20260503051059 | 46 | 11 | 0.0 | 0.0 | 0.00 | 0.00 | 0.00 | 50 | 1014.2 |
| 20260503050559 | 46 | 11 | 0.0 | 0.0 | 0.00 | 0.00 | 0.00 | 50 | 1014.2 |
| 20260503050059 | 46 | 11 | 0.0 | 0.0 | 0.00 | 0.00 | 0.00 | 51 | 1014.2 |
| 20260503045101 | 46 | 11 | 0.0 | 0.0 | 0.00 | 0.00 | 0.00 | 50 | 1014.1 |
| 20260503044611 | 46 | 11 | 0.0 | 0.0 | 0.00 | 0.00 | 0.00 | 49 | 1014.1 |
| 20260503044058 | 46 | 11 | 0.0 | 0.0 | 0.00 | 0.00 | 0.00 | 49 | 1014.2 |
| 20260503043558 | 47 | 11 | 0.0 | 0.0 | 0.00 | 0.00 | 0.00 | 48 | 1014.4 |
| 20260503043107 | 47 | 11 | 0.0 | 0.0 | 0.00 | 0.00 | 0.00 | 48 | 1014.2 |
| 20260503042559 | 47 | 11 | 0.0 | 0.0 | 0.00 | 0.00 | 0.00 | 47 | 1014.2 |
| 20260503042058 | 47 | 11 | 0.0 | 0.0 | 0.00 | 0.00 | 0.00 | 48 | 1014.2 |
| 20260503041558 | 47 | 11 | 0.0 | 0.0 | 0.00 | 0.00 | 0.00 | 47 | 1014.2 |
| 20260503041058 | 47 | 11 | 0.0 | 0.0 | 0.00 | 0.00 | 0.00 | 47 | 1014.2 |
| 20260503040558 | 47 | 11 | 0.0 | 0.0 | 0.00 | 0.00 | 0.00 | 47 | 1014.3 |
| 20260503035100 | 47 | 11 | 0.0 | 0.9 | 0.00 | 0.00 | 0.00 | 47 | 1014.2 |
| 20260503034600 | 48 | 11 | 0.0 | 2.6 | 0.00 | 0.00 | 0.00 | 47 | 1014.3 |
| 20260503034102 | 48 | 11 | 0.9 | 2.6 | 0.00 | 0.00 | 0.00 | 46 | 1014.2 |
| 20260503033559 | 49 | 11 | 1.7 | 2.6 | 0.00 | 0.00 | 0.00 | 45 | 1014.3 |
| 20260503033134 | 49 | 11 | 0.9 | 2.6 | 0.00 | 0.00 | 0.00 | 45 | 1014.2 |